Flag for Japan Weather past 2 weeks in Shizuoka, Japan

Now
37 °F

Chilly.


Feels Like: 28 °F
Forecast: 22 / 49 °F
Wind: 16 mph from West

Location: Omaezaki

Current Time: Feb 1, 2015 at 10:39:02 PM

Latest Report: Feb 1, 2015 at 9:00 PM


Visibility: 13 mi

Pressure: 30.17 "Hg

Humidity: 35%

Dew point: 12 °F

Location of ShizuokaLocation

Historic Weather in Shizuoka — Graph

°F

Shizuoka temperature yesterday

Maximum temperature yesterday: 48 °F (at 2:00 PM)
Minimum temperature yesterday: 35 °F (at 11:00 PM)
Average temperature yesterday: 42 °F

Past Weeks' High & Low Weather Summary

 TemperatureHumidityPressure
High60 °F (Jan 27, 3:00 PM)100% (Jan 22, 10:00 PM)30.37 "Hg (Jan 22, 10:00 PM)
Low33 °F (Jan 29, 6:00 AM)17% (Jan 28, 2:00 PM)29.50 "Hg (Jan 23, 12:00 AM)
Average45 °F62%30.05 "Hg
* Reported Jan 17 9:00 PM — Feb 1 9:00 PM, Shizuoka, Weather by CustomWeather, © 2014

Note: Actual official high and low records may vary slightly from our data, if they occured in-between our weather recording intervals... More about our weather records

Advertising

Shizuoka weather history for previous 24 hours

 ConditionsComfort  
Time TempWeatherWind HumidityBarometerVisibility
9:00 PM
Feb 1
37 °FChilly.16 mph35%30.17 "Hg12 mi
8:00 PM38 °FChilly.17 mph32%30.16 "Hg12 mi
7:00 PM40 °FChilly.18 mph30%30.16 "Hg12 mi
6:00 PM41 °FQuite cool.16 mph29%30.12 "Hg12 mi
5:00 PM43 °FQuite cool.18 mph26%30.11 "Hg12 mi
4:00 PM46 °FCool.22 mph24%30.09 "Hg12 mi
3:00 PM48 °FCool.18 mph27%30.08 "Hg12 mi
2:00 PM48 °FCool.21 mph27%30.09 "Hg12 mi
1:00 PM49 °FCool.16 mph22%30.09 "Hg12 mi
12:00 PM47 °FCool.16 mph22%30.12 "Hg12 mi
11:00 AM46 °FCool.14 mph25%30.14 "Hg12 mi
10:00 AM42 °FQuite cool.14 mph25%30.15 "Hg12 mi
9:00 AM39 °FChilly.15 mph32%30.15 "Hg12 mi
8:00 AM35 °FChilly.14 mph38%30.14 "Hg12 mi
7:00 AM33 °FChilly.15 mph39%30.13 "Hg12 mi
6:00 AM33 °FChilly.15 mph38%30.09 "Hg12 mi
5:00 AM34 °FChilly.16 mph37%30.07 "Hg12 mi
4:00 AM34 °FChilly.14 mph37%30.05 "Hg12 mi
3:00 AM34 °FChilly.17 mph37%30.05 "Hg12 mi
2:00 AM34 °FChilly.16 mph40%30.06 "Hg12 mi
1:00 AM35 °FChilly.16 mph39%30.05 "Hg12 mi
12:00 AM35 °FChilly.18 mph50%30.05 "Hg12 mi
11:00 PM
Jan 31
35 °FChilly.18 mph52%30.04 "Hg12 mi
10:00 PM37 °FChilly.23 mph54%30.03 "Hg12 mi
Weather by CustomWeather, © 2014

See weather overviewHow to use our weather pages